Temp
24 24 24 23 23 22 23 23 23 24 24 23 23 23 24 24 25 25 25 25 24 24 24 24 24 24 25 25 24 24 24 24 24 24 23 22 23 23 23 22 22 22 22
24 24 24 23 23 22 23 23 24 24 24 24 24 23 24 24 25 25 25 25 24 24 24 24 24 25 24 25 24 25 24 24 24 24 22 21 22 23 23 22 23 23 23
24 24 24 24 24 23 23 23 24 24 24 24 23 23 23 23 24 25 25 25 25 24 24 24 24 24 24 24 24 24 24 24 24 24 24 21 22 20 22 23 23 23 23
25 24 24 24 24 23 23 24 24 25 24 25 24 24 23 23 24 25 25 25 25 25 24 24 24 24 24 24 24 24 24 24 24 24 24 24 24 21 22 23 24 24 23
25 25 25 25 25 24 23 24 24 24 25 24 25 24 23 24 25 25 25 25 25 25 25 24 24 24 24 24 24 24 24 24 25 25 24 23 23 23 21 22 23 24 24
25 25 25 25 25 25 24 23 24 24 24 24 24 24 24 24 24 25 25 25 25 25 25 25 24 24 24 24 24 24 24 24 24 25 25 25 24 23 22 20 21 22 24
26 26 25 25 25 25 23 23 23 23 24 24 24 24 24 25 24 25 25 25 25 25 25 25 24 24 24 24 24 24 24 24 24 25 25 25 25 25 24 23 21 21 23
26 26 26 26 25 25 25 23 23 23 23 23 23 24 24 24 25 25 25 25 26 26 25 25 25 25 24 24 24 24 24 24 24 24 24 25 25 25 24 24 23 21 21
27 27 27 27 26 26 25 24 23 23 23 23 23 23 23 24 24 25 25 25 26 26 25 25 25 25 24 24 24 24 24 24 24 24 24 24 24 24 24 24 24 24 22
28 27 27 27 26 26 26 24 24 23 23 23 23 23 23 24 24 25 25 25 26 25 25 25 25 25 25 25 24 24 24 24 24 24 23 24 24 24 24 24 24 23 23
28 28 28 28 27 27 26 24 24 23 23 22 22 22 23 23 23 24 25 25 26 25 25 25 25 25 25 25 24 24 24 24 24 24 23 23 24 24 24 24 24 24 23
29 28 28 28 28 27 27 26 24 23 23 23 23 23 23 23 23 23 25 25 25 25 25 25 25 25 26 25 25 24 24 24 24 24 24 24 23 23 24 23 23 23 23
27 28 28 28 28 27 27 26 25 24 23 23 22 22 22 22 22 23 24 25 25 25 25 25 25 25 25 25 25 25 25 25 25 25 24 24 24 24 24 24 23 23 24
26 27 27 28 29 28 26 26 25 24 24 23 23 22 22 22 22 23 23 24 25 25 25 25 25 25 25 25 25 25 25 25 25 25 25 25 24 24 24 24 24 24 23
27 27 27 28 28 28 26 25 25 24 24 23 23 23 22 22 22 23 23 23 24 25 25 25 25 25 25 25 25 25 25 25 25 25 25 25 25 25 25 24 25 24 23
25 28 28 28 28 28 28 25 25 24 24 24 23 23 22 22 23 23 23 23 23 23 24 24 24 24 25 25 25 25 25 25 25 25 25 26 25 25 25 25 25 24 23
23 27 29 29 29 29 28 26 25 24 24 24 23 23 22 22 22 22 22 22 22 22 22 23 23 23 24 25 25 26 25 25 25 25 25 25 25 26 25 26 26 25 25
20 27 30 29 29 29 29 27 25 24 24 23 23 23 22 22 22 21 22 21 21 22 22 22 22 22 23 24 25 25 25 24 24 24 25 25 25 24 25 25 24 24 24
20 22 28 29 29 28 28 26 25 24 23 23 23 23 22 22 22 21 22 22 21 21 21 22 22 22 22 23 23 24 23 23 23 23 23 24 24 24 24 23 22 23 22
21 20 26 28 28 28 27 26 25 24 23 24 23 23 22 22 22 22 22 22 22 22 21 21 21 22 23 23 24 23 22 21 21 22 22 22 23 23 23 22 22 21 22
20 21 22 24 26 28 27 25 25 24 24 24 24 23 23 23 23 22 22 22 22 22 21 21 22 22 22 23 23 23 22 21 21 21 22 22 22 23 23 22 22 22 23
19 19 21 20 23 26 26 25 24 25 25 25 24 24 23 23 23 23 22 22 22 22 22 22 21 22 22 23 23 24 23 24 22 22 22 22 23 23 23 23 23 23 23
18 18 19 20 20 23 25 24 23 26 27 26 25 25 24 24 24 23 22 22 22 22 22 22 22 22 22 23 24 24 24 24 23 22 23 23 23 23 23 23 23 23 22
17 17 18 18 19 21 23 23 23 25 26 26 25 25 25 24 24 23 23 23 22 22 23 22 22 23 22 23 23 24 24 23 23 23 23 22 22 22 22 22 22 22 22
16 16 17 17 18 20 22 23 24 24 24 23 24 24 25 24 24 24 24 23 23 23 23 23 23 23 22 24 25 25 24 24 24 24 21 21 21 21 21 21 21 20 20
16 16 17 17 18 20 21 21 22 24 24 23 23 23 23 23 23 23 22 23 23 24 24 24 24 24 24 24 24 24 24 23 23 22 21 21 21 21 20 20 19 19 19
Height
782 788 792 796 801 804 808 812 818 822 827 831 836 840 843 845 847 849 853 855 858 860 861 863 864 865 866 868 869 870 871 872 873 875 877 879 880 880 881 881 881 882 883
778 783 787 792 795 799 803 808 813 818 823 828 832 837 841 844 846 848 851 854 857 859 861 862 864 866 867 869 869 870 871 872 873 874 877 880 881 879 880 881 881 882 883
771 776 781 785 791 794 798 803 808 814 819 825 830 835 840 844 845 847 849 852 855 858 860 862 864 865 866 868 869 870 872 872 874 874 876 880 881 880 879 880 881 882 883
765 770 774 779 783 787 794 799 804 809 815 821 826 830 834 838 841 844 847 850 853 855 858 860 862 864 865 867 868 869 871 872 873 874 875 875 876 879 880 879 880 880 881
755 760 762 769 778 785 788 795 800 805 810 815 821 826 831 835 838 842 845 848 851 853 856 859 861 862 864 866 867 868 869 871 872 872 874 876 877 877 878 880 878 879 879
747 753 758 768 772 779 783 789 794 799 804 809 815 820 824 829 834 837 841 844 847 850 853 856 859 861 863 865 866 867 868 869 870 872 873 874 875 876 877 878 878 877 877
739 744 750 757 764 770 776 782 787 792 797 803 809 814 818 823 828 832 835 838 842 845 849 853 856 859 861 863 865 865 867 868 869 870 871 873 874 875 875 876 876 877 875
731 737 743 748 753 760 768 773 780 786 791 795 801 807 813 817 822 826 830 833 837 841 845 849 852 855 858 860 862 863 865 866 867 868 870 872 873 874 874 875 875 877 876
719 724 732 740 747 751 756 763 770 778 783 788 794 800 806 811 815 820 825 829 832 837 842 846 849 852 855 857 859 861 862 863 864 866 868 870 871 872 873 873 874 875 877
710 716 720 727 733 740 748 756 763 768 774 780 787 793 799 804 810 815 820 825 829 834 838 842 845 847 850 853 855 857 860 861 861 863 865 867 869 870 870 871 872 873 873
698 701 706 711 720 733 740 746 754 761 768 774 780 787 793 798 804 808 814 819 825 829 834 838 840 842 845 847 851 853 856 857 857 859 862 863 866 866 867 868 869 870 870
684 689 694 703 712 717 727 735 744 752 758 765 772 778 786 792 797 802 807 814 818 824 828 832 836 838 839 842 845 848 850 852 853 855 857 858 861 861 862 864 865 865 866
682 686 695 699 702 708 716 725 733 740 750 759 766 773 779 785 790 796 801 806 813 818 822 826 829 832 834 836 839 842 845 847 848 850 851 852 854 855 856 857 858 859 860
675 676 683 687 693 698 706 715 725 734 743 752 758 765 771 776 782 788 794 799 805 810 814 817 821 824 828 830 833 836 839 840 842 843 845 846 848 849 850 850 850 852 853
671 669 671 675 682 693 699 709 718 726 734 743 750 756 762 768 775 781 785 790 796 801 806 809 813 817 821 824 827 830 832 834 835 836 837 838 840 841 843 844 843 845 845
665 659 657 662 671 681 686 696 706 717 727 735 741 749 755 761 766 772 777 782 787 792 797 801 805 808 811 815 820 823 825 826 827 828 829 830 832 834 835 837 837 838 837
653 646 645 651 659 668 677 686 695 708 718 725 732 741 748 753 759 765 771 774 778 784 788 792 797 799 802 806 810 815 818 819 819 820 821 822 823 825 827 828 827 826 827
651 636 639 643 650 662 671 684 693 701 710 717 726 733 740 746 753 759 762 767 773 776 780 784 788 791 793 797 801 805 809 811 811 812 813 814 815 816 818 819 817 814 816
648 638 635 644 651 660 671 679 689 697 704 711 716 723 731 739 746 750 754 759 765 769 772 776 780 783 785 789 793 798 800 801 801 803 804 805 805 808 811 811 809 805 804
644 639 633 641 652 661 670 676 684 691 696 702 708 718 725 730 735 739 744 751 756 760 766 770 772 774 776 780 783 788 791 792 794 794 793 795 796 800 802 802 802 797 797
650 645 642 644 650 658 666 674 681 683 689 701 707 714 719 722 727 733 739 745 750 755 759 762 765 767 769 771 775 778 781 782 784 784 785 787 788 790 791 792 792 789 790
660 657 656 654 654 658 663 671 677 684 690 696 702 707 712 717 723 727 733 738 743 748 752 755 757 759 761 763 766 769 771 772 774 776 777 779 780 781 782 783 783 784 784
677 672 668 667 663 664 667 673 679 683 689 694 698 702 707 711 715 720 726 731 735 739 743 747 749 751 752 754 757 759 761 764 766 768 769 771 772 774 775 775 776 777 776
686 683 680 679 679 676 675 678 682 684 685 689 693 697 701 706 711 715 719 723 726 730 734 737 739 742 744 746 749 751 754 757 759 761 762 764 766 767 768 768 768 768 767
695 692 690 689 690 687 685 685 685 685 686 690 692 693 697 701 704 710 713 716 719 721 724 726 730 734 737 737 740 743 747 749 751 753 755 756 758 759 760 761 762 763 763
700 697 696 696 694 693 692 690 689 689 690 691 692 693 695 697 699 703 707 710 713 716 719 723 724 728 731 732 735 738 741 744 746 748 748 749 752 754 755 756 757 758 758
Wind_Speed
22 26 26 29 30 33 35 35 36 34 30 30 26 22 20 16 13 15 14 17 15 14 12 9 8 8 5 4 5 2 3 7 8 9 6 4 4 7 6 5 4 2 2
18 23 27 27 30 33 37 38 38 37 33 33 29 25 24 20 14 13 15 18 17 15 14 11 10 9 7 5 6 3 2 5 8 4 4 2 1 1 9 7 7 5 5
20 19 24 30 29 32 36 39 39 39 36 34 30 23 22 20 18 15 15 18 18 16 16 14 10 10 8 7 6 6 6 5 6 8 3 2 2 1 3 8 8 9 9
19 18 24 29 31 32 35 39 41 40 39 37 34 31 27 23 26 23 17 16 18 19 17 16 12 10 9 8 7 6 6 6 9 8 4 3 3 2 0 4 8 10 11
21 21 24 33 33 29 33 38 40 41 41 40 38 36 33 27 25 25 21 18 17 18 19 17 13 11 11 10 8 8 8 9 11 8 6 4 3 3 2 1 4 10 15
21 20 26 28 31 32 33 36 40 42 42 42 42 41 37 34 28 24 26 24 21 19 19 19 17 14 13 11 9 9 8 10 9 11 7 6 4 6 3 2 5 7 6
20 21 20 25 30 33 31 34 39 39 43 43 42 44 43 41 38 35 33 29 26 24 22 22 21 19 15 14 12 11 10 12 11 10 12 12 10 6 9 5 3 3 4
18 20 20 27 33 34 35 35 36 37 41 44 44 44 44 42 41 37 33 33 31 28 23 22 23 22 19 16 14 14 14 14 15 13 12 13 12 13 10 6 4 0 2
20 22 22 31 32 35 39 40 38 39 40 43 44 42 42 42 40 40 34 32 29 28 25 23 23 24 22 19 18 17 17 17 16 17 16 15 14 13 12 13 10 6 1
19 20 21 30 36 39 37 38 41 41 42 44 42 42 42 45 43 41 37 33 31 27 25 23 25 26 25 24 22 22 20 20 21 20 18 18 17 15 14 13 12 12 9
20 21 23 35 37 34 37 37 39 39 38 38 39 36 38 40 40 41 40 36 32 31 28 26 23 26 27 27 27 25 23 23 23 23 20 20 18 19 20 19 17 16 14
21 22 23 27 31 37 38 39 37 37 40 41 40 41 40 38 38 40 42 38 35 31 32 28 26 27 28 28 27 29 27 26 26 26 25 25 23 23 22 21 22 22 21
11 15 15 18 26 33 36 38 37 39 38 36 37 36 35 36 38 39 42 40 37 35 33 32 32 32 30 29 28 27 29 29 29 29 29 29 28 28 28 27 26 26 25
13 16 16 19 27 33 36 37 36 38 37 36 36 35 36 37 38 40 41 41 39 37 36 36 35 33 33 31 30 29 29 31 32 33 34 33 33 32 31 31 32 31 30
13 16 19 19 20 29 30 33 34 38 38 37 35 37 37 39 39 40 41 41 41 40 38 38 38 37 35 33 31 32 32 31 31 32 34 36 37 36 34 33 34 34 33
16 19 22 22 21 29 34 36 36 37 38 36 36 37 37 38 41 41 41 40 40 40 40 41 41 41 41 40 39 37 35 36 38 39 38 37 36 37 37 36 36 37 35
14 17 23 22 21 33 37 35 38 37 38 37 36 35 34 36 37 38 37 39 40 36 39 40 39 42 44 43 41 41 41 40 40 39 39 39 40 39 38 39 39 41 41
13 10 16 18 30 34 36 29 33 36 37 34 32 34 35 34 33 32 34 35 34 37 38 37 39 39 42 44 44 43 42 42 43 43 44 43 43 41 41 40 41 44 43
9 7 11 14 24 28 30 30 31 32 31 32 34 35 36 34 33 34 34 35 32 33 36 37 37 38 39 39 39 39 41 42 43 42 43 45 45 43 40 38 37 42 39
13 7 18 24 25 26 28 28 28 29 30 33 34 32 34 36 35 38 36 34 32 33 30 31 34 38 39 38 38 38 39 33 33 38 43 43 44 41 39 38 37 36 34
18 19 15 13 22 33 32 25 25 29 29 25 28 33 37 38 38 32 31 29 29 26 27 29 31 34 35 36 35 35 39 35 31 31 30 31 36 38 39 41 40 39 40
22 27 17 14 10 22 26 21 21 20 25 30 32 33 34 32 29 31 29 29 28 27 26 26 25 29 32 32 32 32 36 37 35 30 27 28 31 32 31 31 34 37 39
21 26 21 20 21 18 21 18 8 13 21 27 32 33 32 33 31 31 28 26 29 26 25 23 23 24 27 32 32 31 32 33 40 35 34 34 31 29 27 28 30 32 37
18 23 23 20 19 23 24 18 14 12 16 20 23 27 29 28 28 27 28 27 26 25 24 24 24 23 23 27 28 28 30 32 35 36 38 37 33 32 32 32 32 31 27
20 21 18 17 18 16 18 17 15 13 15 12 10 13 21 26 26 25 25 25 26 27 25 26 23 20 20 29 25 24 25 27 29 32 30 29 27 26 21 16 12 11 12
20 21 21 20 23 19 16 15 14 13 9 7 5 4 5 12 22 26 20 25 26 26 28 23 21 24 25 18 15 16 20 21 20 18 19 16 14 10 7 7 8 9 10
Wind_Direction
193 196 193 191 194 199 202 203 204 203 202 203 205 209 216 213 220 218 217 212 217 213 210 207 192 179 184 180 185 122 106 134 130 125 109 143 206 227 226 227 224 222 240
193 194 193 189 193 196 201 204 206 205 204 207 207 208 207 206 210 211 212 209 215 214 215 214 197 193 204 186 184 185 172 124 165 155 112 42 115 198 222 226 231 237 261
197 195 196 197 192 197 198 202 207 208 207 209 210 209 209 215 209 207 204 203 211 218 223 225 218 209 199 210 188 194 199 169 173 185 158 114 224 312 213 228 232 243 249
202 199 200 202 199 198 201 206 209 209 209 209 212 212 207 207 217 210 207 205 214 222 228 229 228 224 225 210 197 202 207 209 185 166 192 188 158 155 319 233 238 241 244
202 201 202 203 204 198 199 206 209 212 213 213 214 216 216 221 223 221 214 212 215 222 227 229 234 232 224 224 220 217 219 218 200 183 175 181 179 148 130 246 251 244 244
202 208 204 201 202 204 203 201 207 210 215 217 218 219 220 222 223 221 221 220 221 223 226 228 232 236 233 228 233 228 229 218 215 220 215 213 191 206 166 188 250 241 265
201 203 199 199 200 201 199 200 203 205 210 215 219 219 222 226 229 231 231 226 224 225 226 228 230 233 238 235 238 236 235 227 229 231 237 239 237 241 226 221 223 257 272
204 208 206 201 201 199 201 199 202 204 206 210 215 221 221 224 230 233 234 231 230 230 229 233 234 237 238 238 239 237 238 237 239 243 250 250 250 249 246 243 214 292 301
199 202 205 207 205 199 200 200 200 204 205 208 213 215 218 221 226 232 233 231 228 227 232 238 239 239 238 240 239 238 236 233 239 243 246 250 251 254 254 247 252 220 234
206 201 199 201 204 205 199 199 203 203 205 209 209 212 215 222 225 231 231 230 228 225 228 237 241 244 244 243 240 241 241 240 245 247 247 248 249 253 252 252 252 248 247
200 200 199 203 201 200 199 198 199 201 203 205 206 207 212 218 220 227 231 231 231 227 227 234 239 243 246 247 243 243 244 244 249 249 252 253 253 253 256 255 256 257 255
201 202 203 196 193 194 196 198 196 198 201 204 204 207 211 212 215 221 231 232 232 229 226 229 235 242 247 248 247 242 243 244 247 251 253 257 257 258 260 262 260 260 258
207 210 204 198 197 194 191 194 194 197 198 199 200 203 205 206 211 217 227 231 232 230 227 229 233 239 245 248 250 247 244 246 249 252 254 258 259 260 260 260 261 260 261
205 206 202 200 203 192 189 191 194 194 194 195 196 198 201 205 210 216 222 230 230 230 229 229 232 235 238 245 248 250 250 250 252 255 256 258 259 261 264 264 264 265 264
235 213 204 199 196 196 183 188 190 192 191 192 194 199 201 205 210 215 220 226 230 231 230 231 230 232 234 239 244 248 251 253 254 257 260 259 259 261 262 263 268 267 267
226 217 203 195 188 190 187 183 186 186 186 190 195 198 199 201 208 214 217 220 225 230 232 233 233 233 234 237 240 245 249 252 255 258 260 261 262 262 263 264 265 266 264
286 217 198 190 186 188 186 182 182 179 185 190 195 195 197 200 205 210 212 218 220 221 227 231 232 234 236 238 239 240 244 248 253 256 259 261 263 264 265 267 269 268 266
307 207 190 186 188 186 187 175 172 178 183 190 190 193 196 200 204 205 210 217 218 220 223 226 230 233 238 241 242 242 244 245 249 253 256 258 261 262 266 268 269 272 273
307 263 167 172 167 175 175 167 171 176 180 187 191 193 194 197 199 203 209 215 216 220 224 228 230 233 238 241 243 242 240 242 245 248 252 255 258 260 262 263 263 271 270
6 341 133 144 150 160 164 161 169 176 184 192 194 193 195 199 200 207 209 211 215 220 222 225 230 236 239 244 243 239 238 237 241 247 250 251 255 258 259 256 255 258 267
14 21 63 115 153 162 164 165 171 188 191 188 191 196 202 204 209 207 209 207 211 215 219 225 230 236 240 244 246 242 236 234 238 241 246 248 253 258 258 259 254 255 270
15 19 33 46 127 161 161 162 178 190 191 194 196 200 204 203 205 206 205 207 207 210 216 220 226 232 238 243 245 244 240 243 237 240 245 250 257 261 266 265 264 269 271
18 18 23 38 61 107 139 128 143 168 185 194 199 208 209 207 203 202 201 199 204 208 214 216 223 228 232 238 245 250 249 247 244 244 249 256 262 268 268 267 269 270 268
17 16 21 22 26 67 89 99 103 126 174 188 198 205 207 204 202 202 204 203 203 205 211 214 219 224 226 230 240 244 247 248 249 251 254 253 256 260 265 268 272 279 283
11 15 17 18 13 38 65 74 82 96 99 107 136 177 204 209 206 204 206 208 215 213 212 218 213 209 219 233 245 246 243 247 250 253 257 260 259 263 270 277 282 289 303
11 13 14 15 12 25 36 46 55 58 67 88 106 122 173 196 202 202 203 216 219 221 225 228 234 233 239 247 247 243 246 252 254 246 242 241 252 254 264 274 282 289 293